Weather Roundup
Issued by NWS

Home | Current Version | Previous Version | Text Only | Print | Product List | Glossary On
Versions: 1 2 3 4 5 6 7 8 9 10 11 12 13 14 15 16 17 18 19 20 21 22 23 24 25 26 27 28 29 30 31 32 33 34 35 36 37 38 39 40 41 42 43 44 45 46 47 48 49 50
000
NZUS93 KARX 272110
HRRWXR

CURRENT HOURLY OBSERVATIONS ACROSS
MUCH OF THE UPPER MISSISSIPPI VALLEY
NATIONAL WEATHER SERVICE LA CROSSE WI
300 PM CST TUE JAN 27 2015


...SOUTHEAST MINNESOTA...


CITY           SKY/WX    TMP DP  RH WIND       PRES   REMARKS
ROCHESTER      CLOUDY    29  24  82 S8        30.16S WCI  21
ROCHESTER/MAYO CLOUDY    30  23  75 SE6       30.17R WCI  24
WINONA         CLOUDY    32  23  69 CALM      30.20S
AUSTIN         CLOUDY    32  27  80 S3        30.15F
ALBERT LEA     CLOUDY    34  28  80 SE6       30.14S WCI  29
DODGE CENTER   CLOUDY    30  27  86 S6        30.15S WCI  24
PRESTON        CLOUDY    28  23  81 CALM      30.17R
OWATONNA       CLOUDY    34  27  75 SE7       30.16R WCI  28
FARIBAULT      CLOUDY    34  27  75 SE7       30.16S WCI  28
$$

...ELSEWHERE IN MINNESOTA...


CITY           SKY/WX    TMP DP  RH WIND       PRES   REMARKS
MINNEAPOLIS    CLOUDY    33  24  69 SE7       30.16F WCI  27
INTNL FALLS    PTSUNNY   30  23  75 SE6       30.05S WCI  24
DULUTH         CLOUDY    28  21  75 S8        30.10F WCI  20
RED WING       CLOUDY    32  23  69 SE5       30.18R WCI  27
REDWOOD FALLS  CLOUDY    34  30  85 SE14      30.10F WCI  25
MANKATO        CLOUDY    36  28  75 S14       30.14R WCI  27
WORTHINGTON    MOSUNNY   39  34  81 S12       30.07S WCI  32
FAIRMONT       CLOUDY    36  27  69 SE10      30.11S WCI  28
$$

...SOUTHWEST WISCONSIN...


CITY           SKY/WX    TMP DP  RH WIND       PRES   REMARKS
LA CROSSE      CLOUDY    32  21  64 CALM      30.20F
PRAIRIE DU CHI CLOUDY    30  20  66 CALM      30.21S
BOSCOBEL       CLOUDY    30  21  69 CALM      30.22R
LONE ROCK      CLOUDY    29  21  72 CALM      30.22R
PLATTEVILLE    CLOUDY    28  22  79 CALM      30.20R
FORT MC COY    CLOUDY    28  22  76 CALM      30.22R
CAMP DOUGLAS   CLOUDY    27  27 100 NE1       30.20S
VIROQUA        CLOUDY    27  22  80 CALM      30.18S
WIS DELLS      CLOUDY    26  24  90 CALM      30.21R FOG
$$

...ELSEWHERE IN WISCONSIN...


CITY           SKY/WX    TMP DP  RH WIND       PRES   REMARKS
MILWAUKEE      PTSUNNY   29  16  58 NE9       30.22R WCI  20
MADISON        LGT SNOW  28  23  81 NE6       30.21R WCI  22
GREEN BAY      CLOUDY    26  16  65 CALM      30.23R
EAU CLAIRE     CLOUDY    30  19  63 E6        30.18S WCI  24
BLACK RVR FLS  CLOUDY    29  22  76 CALM      30.20S
MEDFORD        CLOUDY    24  20  85 S3        30.16F FOG
WAUSAU         CLOUDY    24  20  84 SW3       30.18S
WIS RAPIDS     CLOUDY    26  21  81 CALM      30.22R
MARSHFIELD     CLOUDY    25  21  85 SE9       30.18S FOG     WCI  15
RICE LAKE      CLOUDY    29  22  75 SE3       30.18S
$$

...NORTHEAST IOWA...


CITY           SKY/WX    TMP DP  RH WIND       PRES   REMARKS
DECORAH        CLOUDY    30  23  74 CALM      30.17R
MASON CITY     CLOUDY    34  29  82 SE7       30.16R WCI  28
CHARLES CITY   CLOUDY    32  30  93 E6        30.18R WCI  26
OELWEIN        CLOUDY    30  25  80 CALM      30.19R
$$

...ELSEWHERE IN IOWA...


CITY           SKY/WX    TMP DP  RH WIND       PRES   REMARKS
DES MOINES     MOSUNNY   46  30  53 E7        30.13F
IOWA CITY      CLOUDY    32  25  75 E5        30.22R WCI  27
FORT DODGE     SUNNY     43  34  70 SE7       30.12R
$$

...NORTHERN ILLINOIS...


CITY           SKY/WX    TMP DP  RH WIND       PRES   REMARKS
CHICAGO-OHARE  MOSUNNY   30  17  58 NE10      30.19R WCI  21
CHICAGO-MIDWAY MOSUNNY   32  19  58 N10       30.20R WCI  24
MOLINE         CLOUDY    30  22  72 E5        30.20S WCI  25
ROCKFORD       CLOUDY    31  22  69 CALM      30.21R
PEORIA         CLOUDY    32  24  72 N5        30.21R WCI  27
$$

NOTE: "FAIR" INDICATES FEW OR NO CLOUDS BELOW 12,000 FEET WITH NO
SIGNIFICANT WEATHER AND/OR OBSTRUCTIONS TO VISIBILITY. WIND
SPEEDS ARE IN MILES-PER-HOUR.



USA.gov is the U.S. government's official web portal to all federal, state and local government web resources and services.